| time (UTC) | temp F | wind direction | speed MPH | gust MPH | rain 1hr in | rain 24hr in | rain mn in | humidity % | barometer mb |
| 20260507012503 | 43 | 352 | 0.0 | 1.0 | 0.00 | 0.67 | 0.56 | 94 | 1013.3 |
| 20260507012005 | 43 | 352 | 0.0 | 1.0 | 0.00 | 0.68 | 0.56 | 94 | 1013.1 |
| 20260507011503 | 43 | 352 | 0.0 | 1.0 | 0.00 | 0.68 | 0.56 | 94 | 1013.1 |
| 20260507011005 | 43 | 352 | 0.0 | 3.0 | 0.00 | 0.68 | 0.56 | 94 | 1013.2 |
| 20260507010713 | 43 | 352 | 0.0 | 3.0 | 0.00 | 0.68 | 0.56 | 94 | 1013.2 |
| 20260507010004 | 43 | 0 | 0.0 | 0.0 | 0.00 | 0.69 | 0.56 | 94 | 1013.1 |
| 20260507005503 | 43 | 0 | 0.0 | 0.0 | 0.00 | 0.69 | 0.56 | 94 | 1012.9 |
| 20260507005214 | 43 | 0 | 0.0 | 0.0 | 0.00 | 0.69 | 0.56 | 94 | 1013.0 |
| 20260507004503 | 43 | 0 | 0.0 | 0.0 | 0.00 | 0.71 | 0.56 | 94 | 1012.9 |
| 20260507004005 | 43 | 0 | 0.0 | 0.0 | 0.00 | 0.71 | 0.56 | 94 | 1012.9 |
| 20260507003508 | 43 | 0 | 0.0 | 0.0 | 0.00 | 0.74 | 0.56 | 94 | 1012.9 |
| 20260507003005 | 43 | 0 | 0.0 | 0.0 | 0.00 | 0.75 | 0.56 | 95 | 1012.7 |
| 20260507002713 | 43 | 352 | 0.0 | 1.0 | 0.00 | 0.76 | 0.56 | 94 | 1012.7 |
| 20260507002005 | 43 | 352 | 0.0 | 3.0 | 0.00 | 0.78 | 0.56 | 94 | 1012.6 |
| 20260507001504 | 43 | 352 | 0.0 | 3.0 | 0.00 | 0.79 | 0.56 | 94 | 1012.5 |
| 20260507001003 | 43 | 352 | 1.0 | 3.0 | 0.00 | 0.80 | 0.56 | 94 | 1012.5 |
| 20260507000504 | 43 | 352 | 1.0 | 5.0 | 0.00 | 0.82 | 0.56 | 95 | 1012.5 |
| 20260507000214 | 43 | 352 | 1.0 | 5.0 | 0.00 | 0.83 | 0.56 | 95 | 1012.5 |
| 20260506235503 | 43 | 352 | 0.0 | 4.0 | 0.00 | 0.85 | 0.56 | 95 | 1012.4 |
| 20260506235214 | 43 | 352 | 0.0 | 3.0 | 0.00 | 0.86 | 0.56 | 95 | 1012.4 |
| 20260506234715 | 43 | 352 | 1.0 | 4.0 | 0.00 | 0.87 | 0.56 | 95 | 1012.4 |
| 20260506234214 | 43 | 352 | 1.0 | 4.0 | 0.00 | 0.90 | 0.56 | 95 | 1012.3 |
| 20260506233713 | 43 | 352 | 1.0 | 5.0 | 0.00 | 0.90 | 0.56 | 95 | 1012.3 |
| 20260506233005 | 43 | 352 | 1.0 | 5.0 | 0.00 | 0.92 | 0.56 | 95 | 1012.4 |
| 20260506232503 | 43 | 352 | 1.0 | 5.0 | 0.00 | 0.92 | 0.56 | 95 | 1012.4 |
| 20260506232003 | 43 | 352 | 2.0 | 5.0 | 0.00 | 0.94 | 0.56 | 95 | 1012.4 |
| 20260506231503 | 43 | 352 | 1.0 | 5.0 | 0.00 | 0.94 | 0.56 | 95 | 1012.3 |
| 20260506231003 | 43 | 352 | 2.0 | 5.0 | 0.00 | 0.95 | 0.56 | 95 | 1012.2 |
| 20260506230712 | 43 | 352 | 2.0 | 6.0 | 0.00 | 0.97 | 0.56 | 95 | 1012.2 |
| 20260506230003 | 43 | 353 | 3.0 | 6.0 | 0.00 | 0.98 | 0.56 | 95 | 1012.1 |
| 20260506225503 | 43 | 341 | 4.0 | 10.0 | 0.00 | 0.99 | 0.56 | 95 | 1011.9 |
| 20260506225003 | 43 | 332 | 4.0 | 12.0 | 0.00 | 0.99 | 0.56 | 95 | 1012.0 |
| 20260506224503 | 43 | 333 | 4.0 | 12.0 | 0.00 | 1.00 | 0.56 | 95 | 1011.9 |
| 20260506224005 | 42 | 337 | 5.0 | 12.0 | 0.00 | 1.00 | 0.56 | 95 | 1011.8 |
| 20260506223503 | 43 | 336 | 6.0 | 12.0 | 0.00 | 1.01 | 0.56 | 95 | 1011.6 |
| 20260506223003 | 43 | 344 | 6.0 | 12.0 | 0.00 | 1.02 | 0.56 | 95 | 1011.6 |
| 20260506222503 | 43 | 349 | 5.0 | 12.0 | 0.00 | 1.03 | 0.56 | 95 | 1011.6 |
| 20260506222003 | 43 | 336 | 6.0 | 13.0 | 0.00 | 1.03 | 0.56 | 95 | 1011.5 |
| 20260506221504 | 42 | 339 | 8.0 | 14.0 | 0.00 | 1.05 | 0.56 | 95 | 1011.5 |
| 20260506221003 | 43 | 344 | 8.0 | 14.0 | 0.00 | 1.06 | 0.56 | 95 | 1011.4 |
| 20260506220503 | 43 | 341 | 8.0 | 14.0 | 0.00 | 1.07 | 0.56 | 94 | 1011.4 |
| 20260506220005 | 43 | 337 | 7.0 | 14.0 | 0.00 | 1.08 | 0.56 | 95 | 1011.3 |
| 20260506215714 | 43 | 335 | 7.0 | 14.0 | 0.00 | 1.08 | 0.56 | 94 | 1011.3 |
| 20260506215213 | 43 | 333 | 7.0 | 17.0 | 0.00 | 1.09 | 0.56 | 94 | 1011.4 |
| 20260506214714 | 43 | 332 | 7.0 | 17.0 | 0.00 | 1.10 | 0.56 | 94 | 1011.3 |
| 20260506214213 | 44 | 327 | 5.0 | 14.0 | 0.00 | 1.12 | 0.56 | 94 | 1011.3 |
| 20260506213505 | 44 | 314 | 6.0 | 15.0 | 0.00 | 1.14 | 0.56 | 93 | 1011.2 |
| 20260506213215 | 44 | 310 | 7.0 | 17.0 | 0.00 | 1.15 | 0.56 | 93 | 1011.2 |
| 20260506212714 | 44 | 310 | 8.0 | 17.0 | 0.00 | 1.16 | 0.56 | 93 | 1011.1 |
| 20260506212213 | 44 | 315 | 9.0 | 18.0 | 0.00 | 1.18 | 0.56 | 93 | 1011.1 |
| 20260506211503 | 45 | 310 | 9.0 | 18.0 | 0.00 | 1.22 | 0.56 | 92 | 1010.8 |
| 20260506211006 | 46 | 297 | 10.0 | 22.0 | 0.00 | 1.24 | 0.56 | 91 | 1010.6 |
| 20260506210503 | 46 | 297 | 11.0 | 23.0 | 0.00 | 1.25 | 0.56 | 91 | 1010.6 |
| 20260506210003 | 47 | 300 | 11.0 | 23.0 | 0.00 | 1.26 | 0.56 | 90 | 1010.5 |
| 20260506205714 | 47 | 304 | 10.0 | 23.0 | 0.00 | 1.26 | 0.56 | 89 | 1010.5 |
| 20260506205003 | 49 | 304 | 9.0 | 23.0 | 0.00 | 1.28 | 0.56 | 88 | 1010.2 |
| 20260506204503 | 50 | 276 | 9.0 | 23.0 | 0.00 | 1.28 | 0.56 | 87 | 1010.2 |
| 20260506204003 | 50 | 230 | 10.0 | 22.0 | 0.00 | 1.29 | 0.56 | 86 | 1010.1 |
| 20260506203505 | 50 | 228 | 11.0 | 22.0 | 0.00 | 1.29 | 0.56 | 84 | 1010.0 |
| 20260506203003 | 50 | 231 | 11.0 | 23.0 | 0.00 | 1.29 | 0.56 | 84 | 1010.0 |
| 20260506202505 | 51 | 225 | 11.0 | 23.0 | 0.00 | 1.29 | 0.56 | 84 | 1010.0 |
| 20260506202004 | 51 | 225 | 10.0 | 22.0 | 0.00 | 1.29 | 0.56 | 84 | 1009.9 |
| 20260506201713 | 51 | 225 | 9.0 | 22.0 | 0.00 | 1.29 | 0.56 | 84 | 1009.9 |
| 20260506201003 | 51 | 232 | 6.0 | 15.0 | 0.00 | 1.29 | 0.56 | 86 | 1009.9 |
| 20260506200713 | 51 | 233 | 7.0 | 15.0 | 0.00 | 1.29 | 0.56 | 86 | 1010.0 |
| 20260506200005 | 51 | 236 | 5.0 | 12.0 | 0.00 | 1.29 | 0.56 | 87 | 1009.9 |
| 20260506195505 | 51 | 236 | 6.0 | 13.0 | 0.00 | 1.29 | 0.56 | 87 | 1009.9 |
| 20260506195003 | 50 | 233 | 7.0 | 13.0 | 0.00 | 1.29 | 0.56 | 87 | 1009.8 |
| 20260506194503 | 50 | 226 | 6.0 | 13.0 | 0.00 | 1.29 | 0.56 | 88 | 1009.9 |
| 20260506194003 | 50 | 203 | 4.0 | 13.0 | 0.00 | 1.29 | 0.56 | 89 | 1009.9 |
| 20260506193713 | 50 | 167 | 3.0 | 12.0 | 0.00 | 1.29 | 0.56 | 89 | 1009.9 |
| 20260506193003 | 50 | 126 | 2.0 | 5.0 | 0.00 | 1.29 | 0.56 | 89 | 1010.0 |
| 20260506192504 | 50 | 125 | 1.0 | 5.0 | 0.00 | 1.29 | 0.56 | 88 | 1009.8 |
| 20260506192003 | 50 | 117 | 1.0 | 5.0 | 0.00 | 1.29 | 0.56 | 88 | 1009.8 |
| 20260506191505 | 50 | 116 | 1.0 | 5.0 | 0.00 | 1.29 | 0.56 | 88 | 1009.8 |
| 20260506191003 | 50 | 0 | 0.0 | 0.0 | 0.00 | 1.29 | 0.56 | 88 | 1009.9 |
| 20260506190504 | 50 | 0 | 0.0 | 0.0 | 0.00 | 1.29 | 0.56 | 89 | 1009.8 |
| 20260506190004 | 50 | 92 | 0.0 | 1.0 | 0.00 | 1.29 | 0.56 | 89 | 1009.7 |
| 20260506185713 | 50 | 92 | 1.0 | 4.0 | 0.00 | 1.29 | 0.56 | 89 | 1009.7 |
| 20260506185005 | 50 | 91 | 1.0 | 4.0 | 0.00 | 1.29 | 0.56 | 90 | 1009.7 |
| 20260506184503 | 50 | 90 | 0.0 | 4.0 | 0.00 | 1.29 | 0.56 | 90 | 1009.7 |
| 20260506184003 | 50 | 90 | 1.0 | 4.0 | 0.00 | 1.29 | 0.56 | 91 | 1009.7 |
| 20260506183505 | 50 | 90 | 2.0 | 5.0 | 0.00 | 1.29 | 0.56 | 91 | 1009.7 |
| 20260506183004 | 50 | 90 | 2.0 | 5.0 | 0.00 | 1.29 | 0.56 | 91 | 1009.6 |
| 20260506182503 | 50 | 90 | 1.0 | 5.0 | 0.00 | 1.29 | 0.56 | 92 | 1009.8 |
| 20260506182003 | 50 | 90 | 0.0 | 4.0 | 0.00 | 1.29 | 0.56 | 92 | 1009.8 |
| 20260506181713 | 50 | 90 | 1.0 | 4.0 | 0.00 | 1.29 | 0.56 | 92 | 1009.8 |
| 20260506181005 | 49 | 90 | 1.0 | 4.0 | 0.00 | 1.29 | 0.56 | 93 | 1009.8 |
| 20260506180503 | 50 | 90 | 2.0 | 4.0 | 0.00 | 1.29 | 0.56 | 94 | 1009.9 |
| 20260506180004 | 49 | 90 | 1.0 | 4.0 | 0.00 | 1.29 | 0.56 | 94 | 1010.1 |
| 20260506175505 | 49 | 86 | 0.0 | 1.0 | 0.00 | 1.29 | 0.56 | 94 | 1009.9 |
| 20260506175213 | 49 | 86 | 0.0 | 1.0 | 0.00 | 1.29 | 0.56 | 94 | 1009.9 |
| 20260506174714 | 49 | 86 | 0.0 | 4.0 | 0.00 | 1.29 | 0.56 | 94 | 1009.8 |
| 20260506174003 | 49 | 86 | 0.0 | 3.0 | 0.00 | 1.29 | 0.56 | 95 | 1010.0 |
| 20260506173505 | 48 | 86 | 1.0 | 4.0 | 0.00 | 1.29 | 0.56 | 95 | 1010.1 |
| 20260506173005 | 48 | 86 | 2.0 | 5.0 | 0.00 | 1.29 | 0.56 | 95 | 1010.0 |
| 20260506172503 | 48 | 85 | 2.0 | 5.0 | 0.00 | 1.29 | 0.56 | 95 | 1010.0 |
| 20260506172003 | 48 | 84 | 1.0 | 5.0 | 0.00 | 1.29 | 0.56 | 95 | 1010.0 |
| 20260506171505 | 48 | 84 | 0.0 | 3.0 | 0.00 | 1.29 | 0.56 | 95 | 1009.9 |
| 20260506171215 | 48 | 84 | 0.0 | 3.0 | 0.00 | 1.29 | 0.56 | 95 | 1009.9 |
| 20260506170503 | 48 | 84 | 1.0 | 4.0 | 0.00 | 1.29 | 0.56 | 96 | 1010.0 |
| 20260506170003 | 48 | 84 | 1.0 | 5.0 | 0.00 | 1.29 | 0.56 | 96 | 1010.1 |
| 20260506165503 | 48 | 85 | 1.0 | 5.0 | 0.00 | 1.29 | 0.56 | 96 | 1010.1 |
| 20260506165005 | 48 | 85 | 0.0 | 3.0 | 0.00 | 1.29 | 0.56 | 96 | 1009.9 |
| 20260506164503 | 48 | 85 | 0.0 | 3.0 | 0.00 | 1.29 | 0.56 | 96 | 1009.9 |
| 20260506164003 | 48 | 85 | 1.0 | 3.0 | 0.00 | 1.29 | 0.56 | 96 | 1009.9 |
| 20260506163503 | 47 | 85 | 2.0 | 5.0 | 0.00 | 1.29 | 0.56 | 98 | 1009.9 |
| 20260506163213 | 47 | 85 | 2.0 | 5.0 | 0.00 | 1.29 | 0.56 | 98 | 1009.8 |
| 20260506162714 | 47 | 85 | 1.0 | 5.0 | 0.00 | 1.29 | 0.56 | 98 | 1009.6 |
| 20260506162003 | 47 | 0 | 0.0 | 0.0 | 0.00 | 1.29 | 0.56 | 98 | 1009.7 |
| 20260506161503 | 47 | 86 | 1.0 | 3.0 | 0.00 | 1.29 | 0.56 | 98 | 1009.9 |
| 20260506161005 | 47 | 86 | 2.0 | 8.0 | 0.00 | 1.29 | 0.56 | 98 | 1009.8 |
| 20260506160505 | 47 | 86 | 2.0 | 8.0 | 0.00 | 1.29 | 0.56 | 98 | 1009.9 |
| 20260506160003 | 47 | 87 | 0.0 | 4.0 | 0.00 | 1.29 | 0.56 | 98 | 1009.8 |
| 20260506155503 | 47 | 87 | 0.0 | 3.0 | 0.00 | 1.29 | 0.56 | 98 | 1009.6 |
| 20260506155003 | 47 | 87 | 1.0 | 4.0 | 0.00 | 1.29 | 0.56 | 98 | 1009.8 |
| 20260506154503 | 47 | 87 | 2.0 | 4.0 | 0.00 | 1.29 | 0.56 | 99 | 1009.7 |
| 20260506154213 | 47 | 87 | 2.0 | 4.0 | 0.00 | 1.29 | 0.56 | 99 | 1009.7 |
| 20260506153503 | 47 | 87 | 1.0 | 4.0 | 0.00 | 1.29 | 0.56 | 99 | 1009.7 |
| 20260506153215 | 47 | 87 | 0.0 | 3.0 | 0.00 | 1.29 | 0.56 | 99 | 1009.7 |
| 20260506152505 | 47 | 87 | 1.0 | 4.0 | 0.00 | 1.29 | 0.56 | 99 | 1009.6 |
| 20260506152213 | 47 | 87 | 2.0 | 5.0 | 0.00 | 1.29 | 0.56 | 99 | 1009.5 |
| 20260506151716 | 47 | 87 | 2.0 | 5.0 | 0.00 | 1.29 | 0.56 | 99 | 1009.5 |
| 20260506151003 | 47 | 88 | 2.0 | 5.0 | 0.01 | 1.29 | 0.56 | 99 | 1009.4 |
| 20260506150503 | 46 | 88 | 1.0 | 5.0 | 0.01 | 1.29 | 0.56 | 99 | 1009.4 |
| 20260506150003 | 46 | 88 | 2.0 | 5.0 | 0.01 | 1.29 | 0.56 | 99 | 1009.5 |
| 20260506145503 | 46 | 89 | 2.0 | 5.0 | 0.02 | 1.29 | 0.56 | 99 | 1009.5 |
| 20260506145005 | 46 | 89 | 3.0 | 5.0 | 0.02 | 1.29 | 0.56 | 99 | 1009.4 |
| 20260506144503 | 46 | 89 | 3.0 | 8.0 | 0.02 | 1.29 | 0.56 | 99 | 1009.3 |
| 20260506144214 | 46 | 89 | 3.0 | 8.0 | 0.02 | 1.29 | 0.56 | 99 | 1009.2 |
| 20260506143503 | 46 | 88 | 2.0 | 5.0 | 0.02 | 1.29 | 0.56 | 99 | 1009.2 |
| 20260506143003 | 46 | 88 | 1.0 | 5.0 | 0.02 | 1.29 | 0.56 | 100 | 1009.2 |
| 20260506142713 | 46 | 88 | 1.0 | 4.0 | 0.02 | 1.29 | 0.56 | 99 | 1009.3 |
| 20260506142003 | 46 | 88 | 2.0 | 4.0 | 0.02 | 1.29 | 0.56 | 99 | 1009.5 |
| 20260506141504 | 46 | 89 | 2.0 | 8.0 | 0.02 | 1.29 | 0.56 | 99 | 1009.4 |
| 20260506141003 | 46 | 90 | 2.0 | 8.0 | 0.01 | 1.28 | 0.55 | 99 | 1009.3 |
| 20260506140715 | 45 | 90 | 2.0 | 5.0 | 0.01 | 1.28 | 0.55 | 99 | 1009.2 |
| 20260506140003 | 45 | 90 | 1.0 | 4.0 | 0.01 | 1.28 | 0.55 | 99 | 1009.3 |
| 20260506135503 | 45 | 90 | 1.0 | 5.0 | 0.00 | 1.26 | 0.54 | 99 | 1009.2 |
| 20260506135003 | 45 | 91 | 2.0 | 5.0 | 0.00 | 1.26 | 0.54 | 99 | 1009.1 |
| 20260506134503 | 45 | 92 | 2.0 | 4.0 | 0.00 | 1.26 | 0.54 | 99 | 1009.1 |
| 20260506134005 | 45 | 92 | 2.0 | 4.0 | 0.01 | 1.26 | 0.54 | 99 | 1008.9 |
| 20260506133503 | 45 | 92 | 2.0 | 4.0 | 0.01 | 1.26 | 0.54 | 99 | 1008.8 |
| 20260506133003 | 45 | 92 | 2.0 | 5.0 | 0.01 | 1.26 | 0.54 | 99 | 1008.9 |
| 20260506132713 | 45 | 92 | 2.0 | 5.0 | 0.01 | 1.26 | 0.54 | 99 | 1008.9 |
| 20260506132005 | 45 | 92 | 2.0 | 5.0 | 0.02 | 1.26 | 0.54 | 99 | 1008.8 |
| 20260506131503 | 45 | 92 | 3.0 | 5.0 | 0.02 | 1.26 | 0.54 | 99 | 1008.8 |
| 20260506131214 | 45 | 92 | 3.0 | 8.0 | 0.02 | 1.26 | 0.54 | 99 | 1008.8 |
| 20260506130713 | 45 | 91 | 3.0 | 8.0 | 0.02 | 1.26 | 0.54 | 100 | 1008.7 |
| 20260506130004 | 45 | 90 | 3.0 | 9.0 | 0.02 | 1.26 | 0.54 | 99 | 1008.7 |
| 20260506125505 | 44 | 92 | 1.0 | 8.0 | 0.02 | 1.26 | 0.54 | 99 | 1008.6 |
| 20260506125004 | 44 | 92 | 2.0 | 4.0 | 0.02 | 1.26 | 0.54 | 99 | 1008.6 |
| 20260506124503 | 44 | 92 | 2.0 | 8.0 | 0.03 | 1.26 | 0.54 | 99 | 1008.6 |
| 20260506124003 | 44 | 89 | 3.0 | 8.0 | 0.02 | 1.25 | 0.53 | 99 | 1008.5 |
| 20260506123503 | 44 | 85 | 4.0 | 12.0 | 0.02 | 1.25 | 0.53 | 99 | 1008.7 |
| 20260506123003 | 44 | 91 | 4.0 | 12.0 | 0.02 | 1.25 | 0.53 | 99 | 1008.7 |
| 20260506122503 | 44 | 99 | 4.0 | 12.0 | 0.02 | 1.24 | 0.52 | 99 | 1008.5 |
| 20260506122003 | 44 | 98 | 4.0 | 8.0 | 0.02 | 1.24 | 0.52 | 99 | 1008.4 |
| 20260506121505 | 44 | 97 | 3.0 | 10.0 | 0.02 | 1.24 | 0.52 | 99 | 1008.4 |
| 20260506121003 | 44 | 96 | 4.0 | 10.0 | 0.02 | 1.24 | 0.52 | 99 | 1008.4 |
| 20260506120503 | 44 | 93 | 4.0 | 10.0 | 0.03 | 1.24 | 0.52 | 99 | 1008.3 |
| 20260506120005 | 44 | 90 | 4.0 | 10.0 | 0.03 | 1.24 | 0.52 | 99 | 1008.3 |
| 20260506115504 | 44 | 88 | 3.0 | 10.0 | 0.03 | 1.24 | 0.52 | 99 | 1008.2 |
| 20260506115213 | 44 | 88 | 3.0 | 8.0 | 0.03 | 1.24 | 0.52 | 99 | 1008.2 |
| 20260506114714 | 44 | 87 | 3.0 | 10.0 | 0.05 | 1.24 | 0.52 | 99 | 1008.2 |
| 20260506114003 | 44 | 87 | 4.0 | 10.0 | 0.03 | 1.23 | 0.51 | 99 | 1008.2 |
| 20260506113714 | 44 | 88 | 3.0 | 10.0 | 0.03 | 1.23 | 0.51 | 99 | 1008.2 |
| 20260506113003 | 44 | 92 | 5.0 | 15.0 | 0.03 | 1.23 | 0.51 | 99 | 1008.2 |
| 20260506112503 | 45 | 90 | 7.0 | 15.0 | 0.02 | 1.22 | 0.49 | 99 | 1008.2 |
| 20260506112003 | 45 | 91 | 5.0 | 12.0 | 0.02 | 1.22 | 0.49 | 99 | 1008.1 |
| 20260506111503 | 45 | 93 | 5.0 | 14.0 | 0.03 | 1.22 | 0.49 | 99 | 1008.2 |
| 20260506111003 | 45 | 86 | 6.0 | 14.0 | 0.03 | 1.22 | 0.49 | 99 | 1008.3 |
| 20260506110503 | 45 | 85 | 5.0 | 14.0 | 0.03 | 1.21 | 0.48 | 100 | 1008.4 |
| 20260506110003 | 45 | 94 | 3.0 | 9.0 | 0.03 | 1.21 | 0.48 | 100 | 1008.6 |
| 20260506105714 | 45 | 90 | 3.0 | 8.0 | 0.03 | 1.21 | 0.48 | 100 | 1008.5 |
| 20260506105003 | 45 | 59 | 4.0 | 12.0 | 0.03 | 1.20 | 0.47 | 100 | 1008.4 |
| 20260506104716 | 45 | 58 | 4.0 | 12.0 | 0.03 | 1.20 | 0.47 | 100 | 1008.4 |
| 20260506104003 | 45 | 60 | 3.0 | 8.0 | 0.05 | 1.20 | 0.47 | 100 | 1008.0 |
| 20260506103503 | 45 | 60 | 3.0 | 8.0 | 0.05 | 1.20 | 0.47 | 100 | 1008.2 |
| 20260506103005 | 45 | 57 | 2.0 | 6.0 | 0.06 | 1.20 | 0.47 | 99 | 1008.1 |
| 20260506102503 | 45 | 55 | 2.0 | 6.0 | 0.06 | 1.20 | 0.47 | 100 | 1008.0 |
| 20260506102213 | 45 | 52 | 2.0 | 6.0 | 0.06 | 1.20 | 0.47 | 99 | 1007.8 |
| 20260506101503 | 45 | 46 | 2.0 | 6.0 | 0.06 | 1.18 | 0.46 | 99 | 1007.8 |
| 20260506101213 | 45 | 47 | 2.0 | 6.0 | 0.06 | 1.18 | 0.46 | 99 | 1008.0 |
| 20260506100505 | 45 | 46 | 2.0 | 6.0 | 0.06 | 1.17 | 0.45 | 99 | 1008.2 |
| 20260506100005 | 45 | 44 | 2.0 | 8.0 | 0.07 | 1.17 | 0.45 | 99 | 1008.5 |
| 20260506095503 | 45 | 40 | 2.0 | 8.0 | 0.07 | 1.17 | 0.45 | 99 | 1008.5 |
| 20260506095214 | 45 | 38 | 2.0 | 5.0 | 0.07 | 1.16 | 0.45 | 99 | 1008.5 |
| 20260506094503 | 45 | 39 | 4.0 | 8.0 | 0.07 | 1.16 | 0.44 | 99 | 1008.7 |
| 20260506094003 | 45 | 40 | 3.0 | 8.0 | 0.07 | 1.15 | 0.43 | 99 | 1008.6 |
| 20260506093503 | 46 | 42 | 3.0 | 8.0 | 0.07 | 1.15 | 0.43 | 99 | 1008.5 |
| 20260506093003 | 46 | 45 | 4.0 | 8.0 | 0.07 | 1.14 | 0.41 | 99 | 1008.5 |
| 20260506092715 | 46 | 47 | 4.0 | 8.0 | 0.08 | 1.14 | 0.41 | 99 | 1008.4 |
| 20260506092005 | 46 | 51 | 3.0 | 8.0 | 0.07 | 1.13 | 0.40 | 99 | 1008.5 |
| 20260506091505 | 46 | 54 | 4.0 | 6.0 | 0.07 | 1.13 | 0.40 | 99 | 1008.5 |
| 20260506091003 | 46 | 56 | 4.0 | 6.0 | 0.08 | 1.13 | 0.40 | 99 | 1008.5 |
| 20260506090503 | 46 | 59 | 4.0 | 8.0 | 0.07 | 1.12 | 0.39 | 99 | 1008.5 |
| 20260506090005 | 46 | 58 | 4.0 | 8.0 | 0.07 | 1.10 | 0.38 | 99 | 1008.6 |
| 20260506085503 | 46 | 54 | 4.0 | 8.0 | 0.07 | 1.10 | 0.38 | 99 | 1008.5 |
| 20260506085214 | 46 | 54 | 5.0 | 8.0 | 0.06 | 1.09 | 0.37 | 99 | 1008.4 |
| 20260506084503 | 46 | 58 | 4.0 | 8.0 | 0.06 | 1.09 | 0.37 | 99 | 1008.5 |
| 20260506084004 | 46 | 55 | 4.0 | 12.0 | 0.06 | 1.08 | 0.36 | 99 | 1008.0 |
| 20260506083713 | 46 | 55 | 4.0 | 12.0 | 0.06 | 1.08 | 0.36 | 99 | 1008.1 |
| 20260506083214 | 46 | 49 | 4.0 | 9.0 | 0.06 | 1.08 | 0.36 | 99 | 1008.1 |
| 20260506082715 | 46 | 42 | 5.0 | 12.0 | 0.05 | 1.06 | 0.33 | 99 | 1008.0 |
| 20260506082003 | 47 | 49 | 4.0 | 12.0 | 0.05 | 1.06 | 0.33 | 99 | 1008.2 |
| 20260506081503 | 47 | 68 | 3.0 | 8.0 | 0.05 | 1.06 | 0.33 | 99 | 1008.1 |
| 20260506081003 | 47 | 70 | 3.0 | 9.0 | 0.05 | 1.05 | 0.32 | 99 | 1008.0 |
| 20260506080715 | 47 | 57 | 3.0 | 9.0 | 0.05 | 1.05 | 0.32 | 99 | 1008.0 |
| 20260506073503 | 47 | 54 | 3.0 | 6.0 | 0.07 | 1.02 | 0.30 | 99 | 1008.2 |
| 20260506073214 | 47 | 57 | 2.0 | 6.0 | 0.07 | 1.02 | 0.30 | 99 | 1008.1 |
| 20260506072503 | 47 | 58 | 3.0 | 6.0 | 0.06 | 1.01 | 0.29 | 99 | 1008.2 |
| 20260506072214 | 47 | 59 | 3.0 | 6.0 | 0.06 | 1.01 | 0.29 | 99 | 1008.2 |
| 20260506071503 | 47 | 60 | 1.0 | 5.0 | 0.07 | 1.01 | 0.29 | 99 | 1008.2 |
| 20260506071003 | 47 | 61 | 1.0 | 4.0 | 0.06 | 1.00 | 0.28 | 99 | 1008.3 |
| 20260506070503 | 47 | 61 | 2.0 | 4.0 | 0.06 | 1.00 | 0.28 | 99 | 1008.4 |
| 20260506070214 | 47 | 61 | 2.0 | 4.0 | 0.05 | 0.99 | 0.26 | 99 | 1008.4 |
| 20260506062503 | 48 | 64 | 3.0 | 10.0 | 0.06 | 0.95 | 0.23 | 99 | 1008.5 |
| 20260506062213 | 48 | 63 | 3.0 | 10.0 | 0.06 | 0.95 | 0.23 | 99 | 1008.4 |
| 20260506061503 | 48 | 62 | 3.0 | 6.0 | 0.06 | 0.94 | 0.22 | 99 | 1008.2 |
| 20260506061003 | 48 | 62 | 2.0 | 6.0 | 0.07 | 0.94 | 0.22 | 99 | 1008.3 |
| 20260506060503 | 48 | 63 | 2.0 | 5.0 | 0.08 | 0.94 | 0.22 | 99 | 1008.6 |
| 20260506051213 | 48 | 0 | 0.0 | 0.0 | 0.14 | 0.90 | 0.15 | 99 | 1009.6 |
| 20260506050714 | 48 | 0 | 0.0 | 0.0 | 0.14 | 0.89 | 0.14 | 99 | 1009.5 |
| 20260506045003 | 48 | 58 | 1.0 | 5.0 | 0.10 | 0.84 | 0.09 | 99 | 1009.2 |
| 20260506044503 | 48 | 58 | 2.0 | 5.0 | 0.09 | 0.83 | 0.08 | 98 | 1009.2 |
| 20260506044003 | 48 | 49 | 3.0 | 6.0 | 0.08 | 0.82 | 0.07 | 98 | 1009.0 |
| 20260506043503 | 49 | 33 | 3.0 | 6.0 | 0.07 | 0.80 | 0.06 | 99 | 1009.1 |
| 20260506043213 | 49 | 19 | 3.0 | 6.0 | 0.06 | 0.79 | 0.05 | 99 | 1009.1 |
| 20260506042503 | 49 | 353 | 2.0 | 5.0 | 0.05 | 0.78 | 0.03 | 99 | 1008.9 |
| 20260506042003 | 49 | 345 | 1.0 | 4.0 | 0.03 | 0.77 | 0.02 | 99 | 1008.8 |
| 20260506041503 | 49 | 341 | 0.0 | 4.0 | 0.03 | 0.76 | 0.01 | 99 | 1008.9 |
| 20260506041214 | 49 | 338 | 0.0 | 3.0 | 0.03 | 0.76 | 0.01 | 98 | 1008.9 |
| 20260506040503 | 49 | 0 | 0.0 | 0.0 | 0.03 | 0.75 | 0.00 | 98 | 1009.1 |
| 20260506040005 | 49 | 0 | 0.0 | 0.0 | 0.03 | 0.75 | 0.00 | 98 | 1008.9 |
| 20260506035503 | 49 | 331 | 1.0 | 3.0 | 0.05 | 0.75 | 0.75 | 98 | 1008.7 |
| 20260506035005 | 49 | 331 | 1.0 | 4.0 | 0.05 | 0.74 | 0.74 | 98 | 1008.9 |
| 20260506034503 | 49 | 331 | 1.0 | 4.0 | 0.05 | 0.74 | 0.74 | 98 | 1008.9 |
| 20260506034214 | 49 | 331 | 1.0 | 4.0 | 0.06 | 0.74 | 0.74 | 98 | 1008.9 |
| 20260506033505 | 49 | 331 | 1.0 | 4.0 | 0.07 | 0.74 | 0.74 | 98 | 1008.8 |
| 20260506033004 | 49 | 331 | 0.0 | 4.0 | 0.07 | 0.74 | 0.74 | 98 | 1008.8 |
| 20260506032503 | 49 | 330 | 0.0 | 3.0 | 0.08 | 0.74 | 0.74 | 98 | 1009.2 |
| 20260506032003 | 49 | 330 | 0.0 | 3.0 | 0.08 | 0.74 | 0.74 | 98 | 1009.2 |
| 20260506031504 | 49 | 0 | 0.0 | 0.0 | 0.07 | 0.72 | 0.72 | 98 | 1009.0 |
| 20260506031214 | 49 | 0 | 0.0 | 0.0 | 0.07 | 0.72 | 0.72 | 98 | 1009.3 |
| 20260506030503 | 49 | 0 | 0.0 | 0.0 | 0.07 | 0.71 | 0.71 | 98 | 1009.2 |
| 20260506030003 | 49 | 0 | 0.0 | 0.0 | 0.07 | 0.71 | 0.71 | 98 | 1009.2 |
| 20260506025503 | 49 | 0 | 0.0 | 0.0 | 0.06 | 0.70 | 0.70 | 98 | 1009.1 |
| 20260506025214 | 49 | 0 | 0.0 | 0.0 | 0.05 | 0.69 | 0.70 | 98 | 1009.2 |
| 20260506024503 | 49 | 0 | 0.0 | 0.0 | 0.05 | 0.69 | 0.69 | 98 | 1009.5 |
| 20260506024003 | 49 | 329 | 0.0 | 1.0 | 0.03 | 0.68 | 0.68 | 98 | 1009.6 |
| 20260506023504 | 49 | 329 | 0.0 | 1.0 | 0.02 | 0.67 | 0.67 | 98 | 1009.5 |
| 20260506023003 | 49 | 0 | 0.0 | 0.0 | 0.02 | 0.68 | 0.67 | 98 | 1009.4 |
| 20260506022503 | 49 | 0 | 0.0 | 0.0 | 0.01 | 0.67 | 0.66 | 98 | 1009.5 |
| 20260506022005 | 49 | 0 | 0.0 | 0.0 | 0.02 | 0.67 | 0.66 | 98 | 1009.5 |
| 20260506021503 | 48 | 0 | 0.0 | 0.0 | 0.02 | 0.67 | 0.66 | 98 | 1009.5 |
| 20260506021003 | 49 | 0 | 0.0 | 0.0 | 0.02 | 0.68 | 0.66 | 98 | 1009.5 |
| 20260506020505 | 48 | 329 | 0.0 | 1.0 | 0.01 | 0.67 | 0.64 | 98 | 1009.4 |
| 20260506020003 | 49 | 329 | 0.0 | 1.0 | 0.02 | 0.67 | 0.64 | 98 | 1009.3 |
| 20260506015503 | 49 | 329 | 0.0 | 1.0 | 0.02 | 0.67 | 0.64 | 98 | 1009.4 |
| 20260506015005 | 49 | 329 | 0.0 | 3.0 | 0.03 | 0.67 | 0.64 | 98 | 1009.6 |
| 20260506014712 | 49 | 329 | 0.0 | 3.0 | 0.03 | 0.67 | 0.64 | 98 | 1009.5 |
| 20260506014003 | 49 | 329 | 0.0 | 3.0 | 0.05 | 0.67 | 0.64 | 98 | 1009.8 |
| 20260506013504 | 49 | 329 | 1.0 | 4.0 | 0.07 | 0.67 | 0.64 | 98 | 1009.6 |
| 20260506013003 | 49 | 329 | 1.0 | 4.0 | 0.08 | 0.67 | 0.64 | 98 | 1009.8 |